Weather History for Phoenix, AZ

Change the Weather History Date:

Sunday, February 9, 2014

  Actual Average Record
Temperature  
Mean Temperature 64 °F 59 °F  
Max Temperature 77 °F 70 °F 84 °F (1987)
Min Temperature 50 °F 48 °F 28 °F (1933)
Degree Days  
Heating Degree Days 1 6  
Month to date heating degree days 65 62  
Since 1 July heating degree days 534 732  
Cooling Degree Days 0 0  
Month to date cooling degree days 0 0  
Year to date cooling degree days 4 2  
Growing Degree Days 14 (Base 50)    
Moisture  
Dew Point 36 °F    
Average Humidity 39    
Maximum Humidity 54    
Minimum Humidity 23    
Precipitation  
Precipitation 0.00 in 0.03 in 0.88 in (1981)
Month to date precipitation 0.00 0.26  
Year to date precipitation 0.00 1.17  
Snow  
Snow 0.00 in - - ()
Month to date snowfall 0.0  
Year to date snowfall 0.0  
Since 1 July snowfall 0.0  
Snow Depth 0.00 in    
Sea Level Pressure  
Sea Level Pressure 30.04 in    
Wind  
Wind Speed 4 mph (ESE)    
Max Wind Speed 10 mph    
Max Gust Speed 13 mph    
Visibility 10 miles    
Events      
T = Trace of Precipitation, MM = Missing Value Source: NWS Daily Summary

Daily Weather History Graph

Daily Weather History Graph

Search for Another Location

Airport:

Trip Planner

Search our weather history database for the weather conditions in past years. The results will help you decide how hot, cold, wet, or windy it might be!

Date:

Astronomy

Feb. 09, 2014 Rise Set
Actual Time 7:17 AM MST 6:07 PM MST
Civil Twilight 6:51 AM MST 6:32 PM MST
Nautical Twilight 6:22 AM MST 7:02 PM MST
Astronomical Twilight 5:53 AM MST 7:31 PM MST
Moon 1:55 PM MST (2/9) 3:20 AM MST (2/9)
Length of Visible Light 11h 41m
Length of Day
10h 49m
Waxing Gibbous, 77% of the Moon is Illuminated
Feb 9
Waxing Gibbous
Feb 14
Full
Feb 22
Last Quarter
Mar 1
New
Mar 8
First Quarter

Hourly Weather History & Observations

Time (MST) Temp. Dew Point Humidity Pressure Visibility Wind Dir Wind Speed Gust Speed Precip Events Conditions
12:51 AM 55.9 °F 36.0 °F 47% 30.12 in 10.0 mi ESE 6.9 mph - N/A   Scattered Clouds
1:51 AM 55.9 °F 36.0 °F 47% 30.12 in 10.0 mi Calm Calm - N/A   Partly Cloudy
2:51 AM 54.0 °F 36.0 °F 51% 30.12 in 10.0 mi East 4.6 mph - N/A   Scattered Clouds
3:51 AM 53.1 °F 37.0 °F 55% 30.09 in 10.0 mi East 8.1 mph - N/A   Clear
4:51 AM 53.1 °F 36.0 °F 52% 30.09 in 10.0 mi ESE 6.9 mph - N/A   Partly Cloudy
5:51 AM 51.1 °F 36.0 °F 56% 30.09 in 10.0 mi ESE 5.8 mph - N/A   Partly Cloudy
6:51 AM 52.0 °F 36.0 °F 54% 30.09 in 10.0 mi ESE 6.9 mph - N/A   Partly Cloudy
7:51 AM 52.0 °F 36.0 °F 54% 30.10 in 10.0 mi ESE 6.9 mph - N/A   Partly Cloudy
8:51 AM 57.9 °F 36.0 °F 44% 30.11 in 10.0 mi SE 6.9 mph - N/A   Partly Cloudy
9:51 AM 60.1 °F 36.0 °F 41% 30.09 in 10.0 mi ESE 4.6 mph - N/A   Partly Cloudy
10:51 AM 64.9 °F 35.1 °F 33% 30.09 in 10.0 mi ESE 4.6 mph - N/A   Partly Cloudy
11:51 AM 68.0 °F 35.1 °F 30% 30.06 in 10.0 mi ESE 3.5 mph - N/A   Partly Cloudy
12:51 PM 70.0 °F 34.0 °F 27% 30.04 in 10.0 mi Calm Calm - N/A   Partly Cloudy
1:51 PM 71.1 °F 34.0 °F 26% 30.01 in 10.0 mi Variable 3.5 mph - N/A   Partly Cloudy
2:51 PM 73.0 °F 34.0 °F 24% 29.98 in 10.0 mi NW 4.6 mph - N/A   Mostly Cloudy
3:51 PM 75.9 °F 35.1 °F 23% 29.96 in 10.0 mi Calm Calm - N/A   Scattered Clouds
4:51 PM 75.9 °F 35.1 °F 23% 29.96 in 10.0 mi SSW 3.5 mph - N/A   Mostly Cloudy
5:51 PM 73.9 °F 36.0 °F 25% 29.96 in 10.0 mi South 4.6 mph - N/A   Mostly Cloudy
6:51 PM 71.1 °F 36.0 °F 28% 29.96 in 10.0 mi Calm Calm - N/A   Mostly Cloudy
7:51 PM 70.0 °F 36.0 °F 29% 29.96 in 10.0 mi Calm Calm - N/A   Mostly Cloudy
8:51 PM 66.9 °F 37.9 °F 34% 29.97 in 10.0 mi Calm Calm - N/A   Mostly Cloudy
9:51 PM 62.1 °F 39.9 °F 44% 29.97 in 10.0 mi Calm Calm - N/A   Scattered Clouds
10:51 PM 62.1 °F 39.0 °F 43% 29.97 in 10.0 mi ESE 5.8 mph - N/A   Scattered Clouds
11:51 PM 59.0 °F 37.9 °F 46% 29.97 in 10.0 mi East 5.8 mph - N/A   Partly Cloudy